This is the latest recevied weather packets stored in our database for station/object OK1FPA-13. If no packets are shown the sender has not sent any weather packets the latest 10 day(s).
| Time | Temp. | Humidity | Pressure | Rain* | Wind** | Luminosity | Snow |
|---|---|---|---|---|---|---|---|
| 1777703069 | 11.11° C | 63% | 1024.8 hPa | - | - | - | - |
| 1777702470 | 10.56° C | 66% | 1024.8 hPa | - | - | - | - |
| 1777701869 | 9.44° C | 68% | 1024.9 hPa | - | - | - | - |
| 1777701269 | 8.89° C | 71% | 1024.9 hPa | - | - | - | - |
| 1777700669 | 8.33° C | 71% | 1024.9 hPa | - | - | - | - |
| 1777700069 | 7.78° C | 75% | 1025 hPa | - | - | - | - |
| 1777699469 | 7.22° C | 79% | 1025.1 hPa | - | - | - | - |
| 1777698869 | 6.67° C | 82% | 1025 hPa | - | - | - | - |
| 1777698269 | 6.11° C | 87% | 1025 hPa | - | - | - | - |
| 1777697672 | 5° C | 91% | 1025.1 hPa | - | - | - | - |
| 1777697069 | 4.44° C | 93% | 1025 hPa | - | - | - | - |
| 1777696469 | 3.89° C | 95% | 1024.9 hPa | - | - | - | - |
| 1777695869 | 3.33° C | 90% | 1024.9 hPa | - | - | - | - |
| 1777695270 | 3.33° C | 89% | 1024.9 hPa | - | - | - | - |
| 1777694671 | 3.33° C | 85% | 1024.9 hPa | - | - | - | - |
| 1777694070 | 3.33° C | 85% | 1024.9 hPa | - | - | - | - |
| 1777693470 | 2.78° C | 83% | 1025 hPa | - | - | - | - |
| 1777692869 | 3.33° C | 81% | 1024.9 hPa | - | - | - | - |
| 1777692269 | 3.89° C | 83% | 1024.9 hPa | - | - | - | - |
| 1777691670 | 3.89° C | 84% | 1024.9 hPa | - | - | - | - |
| 1777691069 | 3.89° C | 87% | 1024.8 hPa | - | - | - | - |
| 1777690470 | 3.89° C | 86% | 1024.9 hPa | - | - | - | - |
| 1777689869 | 4.44° C | 81% | 1024.9 hPa | - | - | - | - |
| 1777689270 | 4.44° C | 84% | 1025 hPa | - | - | - | - |
| 1777688669 | 3.89° C | 91% | 1025 hPa | - | - | - | - |
* Rain since midnight (hover to see other rain measurements)
** Current wind speed in m/s (hover to see current wind gust speed)